Time,TemperatureF,DewpointF,PressureIn,WindDirection,WindDirectionDegrees,WindSpeedMPH,WindSpeedGustMPH,Humidity,HourlyPrecipIn,Conditions,Clouds,dailyrainin,SolarRadiationWatts/m^2,SoftwareType,DateUTC
2013-01-03 00:00:00,64.1,61.1,29.95,ESE,119,0.0,0.0,90,0.00,RA,SCT,0.00,0.0,WeatherDisplay:10.37,2013-01-03 10:00:00,
2013-01-03 00:10:00,63.7,61.0,29.95,ESE,119,0.0,1.0,91,0.00,BKN,SCT,0.00,0.0,WeatherDisplay:10.37,2013-01-03 10:10:00,
2013-01-03 00:20:00,63.3,60.9,29.94,ESE,119,0.0,0.0,92,0.00,BKN,SCT,0.00,0.0,WeatherDisplay:10.37,2013-01-03 10:20:00,
2013-01-03 00:30:00,63.0,60.6,29.95,ESE,119,0.0,2.0,92,0.00,BKN,SCT,0.00,0.0,WeatherDisplay:10.37,2013-01-03 10:30:00,
2013-01-03 00:40:00,62.7,60.6,29.94,ESE,119,0.0,1.0,93,0.00,BKN,SCT,0.00,0.0,WeatherDisplay:10.37,2013-01-03 10:40:00,
2013-01-03 00:50:00,62.5,60.4,29.94,ESE,119,0.0,1.0,93,0.00,BKN,SCT,0.00,0.0,WeatherDisplay:10.37,2013-01-03 10:50:00,
2013-01-03 01:00:00,62.3,60.2,29.95,ESE,119,0.0,1.0,93,0.00,BKN,SCT,0.00,0.0,WeatherDisplay:10.37,2013-01-03 11:00:00,
2013-01-03 01:10:00,62.1,60.3,29.94,ESE,119,0.0,1.0,94,0.00,FEW,SCT,0.00,0.0,WeatherDisplay:10.37,2013-01-03 11:10:00,
2013-01-03 01:20:00,61.9,60.2,29.94,East,90,2.0,3.0,94,0.00,FEW,SCT,0.00,0.0,WeatherDisplay:10.37,2013-01-03 11:20:00,
2013-01-03 01:30:00,62.1,60.7,29.94,ENE,76,1.0,4.0,95,0.00,FEW,SCT,0.00,0.0,WeatherDisplay:10.37,2013-01-03 11:30:00,
2013-01-03 01:40:00,62.7,60.6,29.93,East,82,2.0,8.0,93,0.00,FEW,SCT,0.00,0.0,WeatherDisplay:10.37,2013-01-03 11:40:00,
2013-01-03 01:50:00,62.8,60.4,29.93,ESE,115,2.0,5.0,92,0.00,FEW,SCT,0.00,0.0,WeatherDisplay:10.37,2013-01-03 11:50:00,
2013-01-03 02:00:00,62.7,60.6,29.93,ESE,111,1.0,6.0,93,0.00,FEW,SCT,0.00,0.0,WeatherDisplay:10.37,2013-01-03 12:00:00,
2013-01-03 02:10:00,62.7,60.7,29.93,East,84,1.0,4.0,93,0.00,SCT,SCT,0.00,0.0,WeatherDisplay:10.37,2013-01-03 12:10:00,
2013-01-03 02:20:00,62.6,60.2,29.93,East,81,0.0,2.0,92,0.00,SCT,SCT,0.00,0.0,WeatherDisplay:10.37,2013-01-03 12:20:00,
2013-01-03 02:30:00,62.2,59.8,29.92,ESE,113,1.0,8.0,92,0.00,SCT,SCT,0.00,0.0,WeatherDisplay:10.37,2013-01-03 12:30:00,
2013-01-03 02:40:00,62.1,59.7,29.92,ESE,118,3.0,5.0,92,0.00,SCT,SCT,0.00,0.0,WeatherDisplay:10.37,2013-01-03 12:40:00,
2013-01-03 03:00:00,62.1,59.7,29.92,SE,134,0.0,4.0,92,0.00,SCT,SCT,0.00,0.0,WeatherDisplay:10.37,2013-01-03 13:00:00,
2013-01-03 03:10:00,61.9,59.5,29.91,SE,135,0.0,3.0,92,0.00,BKN,SCT,0.00,0.0,WeatherDisplay:10.37,2013-01-03 13:10:00,
2013-01-03 03:20:00,61.6,59.3,29.92,ESE,106,2.0,3.0,92,0.00,BKN,SCT,0.00,0.0,WeatherDisplay:10.37,2013-01-03 13:20:00,
2013-01-03 03:30:00,61.8,59.7,29.91,North,4,0.0,4.0,93,0.00,BKN,SCT,0.00,0.0,WeatherDisplay:10.37,2013-01-03 13:30:00,
2013-01-03 03:40:00,61.6,59.6,29.91,NE,42,0.0,4.0,93,0.00,BKN,SCT,0.00,0.0,WeatherDisplay:10.37,2013-01-03 13:40:00,
2013-01-03 03:50:00,61.6,59.6,29.91,ESE,105,0.0,4.0,93,0.00,BKN,SCT,0.00,0.0,WeatherDisplay:10.37,2013-01-03 13:50:00,
2013-01-03 04:00:00,61.7,59.7,29.91,ESE,103,2.0,4.0,93,0.00,BKN,SCT,0.00,0.0,WeatherDisplay:10.37,2013-01-03 14:00:00,
2013-01-03 04:10:00,62.6,61.1,29.91,East,97,5.0,8.0,95,0.00,SCT,SCT,0.00,0.0,WeatherDisplay:10.37,2013-01-03 14:10:00,
2013-01-03 04:20:00,63.2,61.2,29.91,East,88,1.0,7.0,93,0.00,SCT,SCT,0.00,0.0,WeatherDisplay:10.37,2013-01-03 14:20:00,
2013-01-03 04:30:00,63.5,61.4,29.91,East,93,3.0,5.0,93,0.00,SCT,SCT,0.00,0.0,WeatherDisplay:10.37,2013-01-03 14:30:00,
2013-01-03 04:40:00,63.9,61.6,29.91,East,92,3.0,14.0,92,0.00,SCT,SCT,0.00,0.0,WeatherDisplay:10.37,2013-01-03 14:40:00,
2013-01-03 04:50:00,64.5,61.5,29.91,ENE,66,6.0,10.0,90,0.00,SCT,SCT,0.00,0.0,WeatherDisplay:10.37,2013-01-03 14:50:00,
2013-01-03 05:00:00,64.5,61.8,29.91,ENE,69,5.0,13.0,91,0.00,SCT,SCT,0.00,0.0,WeatherDisplay:10.37,2013-01-03 15:00:00,
2013-01-03 05:10:00,64.6,62.2,29.91,ENE,78,6.0,13.0,92,0.00,SCT,SCT,0.00,0.0,WeatherDisplay:10.37,2013-01-03 15:10:00,
2013-01-03 05:20:00,64.5,62.1,29.91,East,92,6.0,10.0,92,0.00,SCT,SCT,0.00,0.0,WeatherDisplay:10.37,2013-01-03 15:20:00,
2013-01-03 05:30:00,64.4,61.7,29.91,ESE,106,2.0,10.0,91,0.00,SCT,SCT,0.00,0.0,WeatherDisplay:10.37,2013-01-03 15:30:00,
2013-01-03 05:40:00,64.4,61.4,29.92,East,90,6.0,12.0,90,0.00,SCT,SCT,0.00,0.0,WeatherDisplay:10.37,2013-01-03 15:40:00,
2013-01-03 05:50:00,64.6,61.3,29.92,East,80,5.0,10.0,89,0.00,SCT,SCT,0.00,0.0,WeatherDisplay:10.37,2013-01-03 15:50:00,
2013-01-03 06:00:00,64.7,61.1,29.92,ENE,73,7.0,9.0,88,0.00,SCT,SCT,0.00,0.0,WeatherDisplay:10.37,2013-01-03 16:00:00,
2013-01-03 06:10:00,64.8,61.2,29.92,East,79,6.0,12.0,88,0.00,SCT,SCT,0.00,0.0,WeatherDisplay:10.37,2013-01-03 16:10:00,
2013-01-03 06:20:00,64.6,61.3,29.92,ENE,76,6.0,12.0,89,0.00,SCT,SCT,0.00,0.0,WeatherDisplay:10.37,2013-01-03 16:20:00,
2013-01-03 06:30:00,64.6,61.3,29.93,ENE,77,6.0,12.0,89,0.00,SCT,SCT,0.00,0.0,WeatherDisplay:10.37,2013-01-03 16:30:00,
2013-01-03 06:40:00,64.5,61.5,29.92,ENE,77,5.0,13.0,90,0.00,SCT,SCT,0.00,0.0,WeatherDisplay:10.37,2013-01-03 16:40:00,
2013-01-03 06:50:00,64.4,61.4,29.93,ENE,74,6.0,12.0,90,0.00,SCT,SCT,0.00,0.0,WeatherDisplay:10.37,2013-01-03 16:50:00,
2013-01-03 07:00:00,64.3,61.6,29.93,East,80,7.0,14.0,91,0.00,SCT,SCT,0.00,0.0,WeatherDisplay:10.37,2013-01-03 17:00:00,
2013-01-03 07:10:00,64.4,61.7,29.93,ENE,75,7.0,15.0,91,0.00,SCT,SCT,0.00,4.2,WeatherDisplay:10.37,2013-01-03 17:10:00,
2013-01-03 07:20:00,64.4,61.7,29.93,ENE,59,6.0,15.0,91,0.00,SCT,SCT,0.00,7.1,WeatherDisplay:10.37,2013-01-03 17:20:00,
2013-01-03 07:30:00,64.2,61.5,29.94,NE,56,7.0,14.0,91,0.00,SCT,SCT,0.00,11.3,WeatherDisplay:10.37,2013-01-03 17:30:00,
2013-01-03 07:40:00,64.3,61.9,29.94,ENE,68,8.0,16.0,92,0.00,SCT,SCT,0.00,13.4,WeatherDisplay:10.37,2013-01-03 17:40:00,
2013-01-03 07:50:00,64.5,62.1,29.94,ENE,68,6.0,14.0,92,0.00,SCT,SCT,0.00,36.7,WeatherDisplay:10.37,2013-01-03 17:50:00,
2013-01-03 08:00:00,65.0,62.0,29.95,ENE,78,10.0,22.0,90,0.00,SCT,SCT,0.00,24.6,WeatherDisplay:10.37,2013-01-03 18:00:00,
2013-01-03 08:10:00,65.6,62.3,29.95,ENE,77,8.0,12.0,89,0.00,SCT,SCT,0.00,82.7,WeatherDisplay:10.37,2013-01-03 18:10:00,
2013-01-03 08:20:00,66.2,62.9,29.95,ENE,62,7.0,16.0,89,0.00,SCT,SCT,0.00,68.5,WeatherDisplay:10.37,2013-01-03 18:20:00,
2013-01-03 08:30:00,65.9,62.9,29.96,ENE,71,8.0,16.0,90,0.00,SCT,SCT,0.00,79.3,WeatherDisplay:10.37,2013-01-03 18:30:00,
2013-01-03 08:40:00,66.2,63.5,29.96,NE,54,7.0,13.0,91,0.00,FEW,SCT,0.00,145.7,WeatherDisplay:10.37,2013-01-03 18:40:00,
2013-01-03 08:50:00,66.7,63.6,29.96,ENE,62,7.0,16.0,90,0.00,FEW,SCT,0.00,214.2,WeatherDisplay:10.37,2013-01-03 18:50:00,
2013-01-03 09:00:00,67.6,64.3,29.97,ENE,64,9.0,15.0,89,0.00,FEW,SCT,0.00,277.2,WeatherDisplay:10.37,2013-01-03 19:00:00,
2013-01-03 09:10:00,68.2,64.2,29.96,ENE,64,6.0,15.0,87,0.00,-RA,SCT,0.00,283.5,WeatherDisplay:10.37,2013-01-03 19:10:00,
2013-01-03 10:00:00,72.8,65.5,29.98,SE,124,5.0,10.0,78,0.00,-RA,SCT,0.00,321.1,WeatherDisplay:10.37,2013-01-03 20:00:00,
2013-01-03 10:10:00,73.0,65.7,29.98,East,93,6.0,16.0,78,0.00,SCT,SCT,0.00,332.3,WeatherDisplay:10.37,2013-01-03 20:10:00,
2013-01-03 10:20:00,72.8,65.2,29.97,East,79,6.0,15.0,77,0.00,SCT,SCT,0.00,314.0,WeatherDisplay:10.37,2013-01-03 20:20:00,
2013-01-03 10:30:00,72.8,64.8,29.97,East,91,9.0,22.0,76,0.00,SCT,SCT,0.00,311.9,WeatherDisplay:10.37,2013-01-03 20:30:00,
2013-01-03 10:40:00,73.1,64.3,29.96,ENE,78,9.0,18.0,74,0.00,SCT,SCT,0.00,314.8,WeatherDisplay:10.37,2013-01-03 20:40:00,
2013-01-03 10:50:00,74.3,65.5,29.96,ESE,109,3.0,15.0,74,0.00,SCT,SCT,0.00,334.4,WeatherDisplay:10.37,2013-01-03 20:50:00,
2013-01-03 11:00:00,74.9,64.9,29.96,East,88,7.0,16.0,71,0.00,SCT,SCT,0.00,316.0,WeatherDisplay:10.37,2013-01-03 21:00:00,
2013-01-03 11:10:00,75.2,65.1,29.95,East,84,8.0,15.0,71,0.00,SCT,SCT,0.00,323.1,WeatherDisplay:10.37,2013-01-03 21:10:00,
2013-01-03 11:20:00,75.0,65.8,29.95,East,93,8.0,17.0,73,0.00,SCT,SCT,0.00,334.4,WeatherDisplay:10.37,2013-01-03 21:20:00,
2013-01-03 11:30:00,75.1,65.1,29.95,East,100,7.0,18.0,71,0.00,SCT,SCT,0.00,321.9,WeatherDisplay:10.37,2013-01-03 21:30:00,
2013-01-03 11:40:00,75.2,65.1,29.95,ENE,75,7.0,18.0,71,0.00,SCT,SCT,0.00,324.0,WeatherDisplay:10.37,2013-01-03 21:40:00,
2013-01-03 11:50:00,74.8,66.4,29.94,ENE,77,8.0,18.0,75,0.00,SCT,SCT,0.00,327.3,WeatherDisplay:10.37,2013-01-03 21:50:00,
2013-01-03 12:00:00,74.9,65.3,29.93,East,84,12.0,17.0,72,0.00,SCT,SCT,0.00,327.3,WeatherDisplay:10.37,2013-01-03 22:00:00,
2013-01-03 12:10:00,74.4,65.6,29.94,ENE,72,10.0,22.0,74,0.00,SCT,SCT,0.00,360.7,WeatherDisplay:10.37,2013-01-03 22:10:00,
2013-01-03 12:20:00,74.6,65.8,29.93,East,79,8.0,14.0,74,0.00,SCT,SCT,0.00,333.2,WeatherDisplay:10.37,2013-01-03 22:20:00,
2013-01-03 12:30:00,74.7,66.2,29.92,ENE,59,10.0,18.0,75,0.00,SCT,SCT,0.00,332.3,WeatherDisplay:10.37,2013-01-03 22:30:00,
2013-01-03 12:40:00,75.2,65.9,29.92,ENE,74,9.0,22.0,73,0.00,SCT,SCT,0.00,385.4,WeatherDisplay:10.37,2013-01-03 22:40:00,
2013-01-03 12:50:00,74.4,67.8,29.92,ENE,71,9.0,20.0,80,0.00,SCT,SCT,0.00,328.2,WeatherDisplay:10.37,2013-01-03 22:50:00,
2013-01-03 13:00:00,71.6,66.5,29.92,ENE,69,6.0,16.0,84,0.01,RA,SCT,0.01,164.9,WeatherDisplay:10.37,2013-01-03 23:00:00,
2013-01-03 13:10:00,70.3,66.6,29.91,ENE,63,12.0,20.0,88,0.00,BKN,SCT,0.01,195.8,WeatherDisplay:10.37,2013-01-03 23:10:00,
2013-01-03 13:20:00,70.5,67.1,29.91,ENE,74,8.0,16.0,89,0.00,BKN,SCT,0.01,362.0,WeatherDisplay:10.37,2013-01-03 23:20:00,
2013-01-03 13:30:00,71.2,66.5,29.90,East,81,13.0,24.0,85,0.00,BKN,SCT,0.01,312.7,WeatherDisplay:10.37,2013-01-03 23:30:00,
2013-01-03 13:40:00,71.9,65.8,29.90,ENE,64,9.0,18.0,81,0.00,BKN,SCT,0.01,311.9,WeatherDisplay:10.37,2013-01-03 23:40:00,
2013-01-03 13:50:00,72.5,66.0,29.90,ENE,67,12.0,22.0,80,0.00,BKN,SCT,0.01,304.8,WeatherDisplay:10.37,2013-01-03 23:50:00,
2013-01-03 14:00:00,73.0,66.1,29.90,ENE,75,10.0,20.0,79,0.00,BKN,SCT,0.01,314.0,WeatherDisplay:10.37,2013-01-04 00:00:00,
2013-01-03 14:10:00,73.9,67.7,29.90,ENE,62,8.0,16.0,81,0.00,SCT,SCT,0.01,359.9,WeatherDisplay:10.37,2013-01-04 00:10:00,
2013-01-03 14:20:00,74.0,67.1,29.90,ENE,65,10.0,20.0,79,0.00,SCT,SCT,0.01,247.6,WeatherDisplay:10.37,2013-01-04 00:20:00,
2013-01-03 14:30:00,73.1,66.6,29.90,ENE,71,12.0,23.0,80,0.00,SCT,SCT,0.01,327.3,WeatherDisplay:10.37,2013-01-04 00:30:00,
2013-01-03 14:40:00,73.4,67.2,29.90,East,79,9.0,23.0,81,0.00,SCT,SCT,0.01,268.0,WeatherDisplay:10.37,2013-01-04 00:40:00,
2013-01-03 14:50:00,73.1,66.2,29.90,ENE,66,8.0,17.0,79,0.00,SCT,SCT,0.01,224.2,WeatherDisplay:10.37,2013-01-04 00:50:00,
2013-01-03 15:00:00,72.2,65.3,29.91,ENE,71,10.0,18.0,79,0.00,SCT,SCT,0.01,289.3,WeatherDisplay:10.37,2013-01-04 01:00:00,
2013-01-03 15:10:00,71.8,64.5,29.91,East,86,10.0,18.0,78,0.00,SCT,SCT,0.01,275.1,WeatherDisplay:10.37,2013-01-04 01:10:00,
2013-01-03 15:20:00,72.1,64.5,29.91,East,80,12.0,21.0,77,0.00,SCT,SCT,0.01,279.3,WeatherDisplay:10.37,2013-01-04 01:20:00,
2013-01-03 15:30:00,72.9,65.3,29.91,ENE,76,12.0,20.0,77,0.00,SCT,SCT,0.01,279.3,WeatherDisplay:10.37,2013-01-04 01:30:00,
2013-01-03 15:40:00,72.5,66.0,29.91,ENE,63,9.0,18.0,80,0.00,SCT,SCT,0.01,198.7,WeatherDisplay:10.37,2013-01-04 01:40:00,
2013-01-03 15:50:00,71.2,66.8,29.91,ENE,64,8.0,18.0,86,0.00,SCT,SCT,0.01,326.1,WeatherDisplay:10.37,2013-01-04 01:50:00,
2013-01-03 16:00:00,69.8,65.7,29.92,ENE,70,7.0,17.0,87,0.01,RA,SCT,0.02,130.3,WeatherDisplay:10.37,2013-01-04 02:00:00,
2013-01-03 16:10:00,68.6,64.9,29.92,ENE,75,9.0,16.0,88,0.00,SCT,SCT,0.02,292.7,WeatherDisplay:10.37,2013-01-04 02:10:00,
2013-01-03 16:20:00,69.0,65.6,29.92,ENE,67,7.0,14.0,89,0.00,SCT,SCT,0.02,223.4,WeatherDisplay:10.37,2013-01-04 02:20:00,
2013-01-03 16:30:00,68.8,63.7,29.92,ENE,71,10.0,20.0,84,0.00,SCT,SCT,0.02,134.4,WeatherDisplay:10.37,2013-01-04 02:30:00,
2013-01-03 16:40:00,68.5,62.8,29.92,East,84,7.0,20.0,82,0.00,SCT,SCT,0.02,220.0,WeatherDisplay:10.37,2013-01-04 02:40:00,
2013-01-03 16:50:00,68.9,63.2,29.93,ENE,62,8.0,20.0,82,0.00,SCT,SCT,0.02,98.9,WeatherDisplay:10.37,2013-01-04 02:50:00,
2013-01-03 17:00:00,68.3,64.2,29.94,ENE,71,9.0,17.0,87,0.00,SCT,SCT,0.02,87.7,WeatherDisplay:10.37,2013-01-04 03:00:00,
2013-01-03 17:10:00,67.1,63.8,29.94,ENE,69,7.0,17.0,89,0.02,RA,SCT,0.04,91.8,WeatherDisplay:10.37,2013-01-04 03:10:00,
2013-01-03 17:20:00,66.6,63.9,29.93,ENE,76,6.0,13.0,91,0.01,RA,SCT,0.05,61.0,WeatherDisplay:10.37,2013-01-04 03:20:00,
2013-01-03 17:30:00,66.1,63.4,29.94,ENE,72,7.0,16.0,91,0.02,RA,SCT,0.07,18.4,WeatherDisplay:10.37,2013-01-04 03:30:00,
2013-01-03 17:40:00,65.8,63.7,29.94,ENE,73,8.0,16.0,93,0.00,SCT,SCT,0.07,17.1,WeatherDisplay:10.37,2013-01-04 03:40:00,
2013-01-03 17:50:00,65.5,63.1,29.94,ENE,65,9.0,15.0,92,0.01,RA,SCT,0.08,5.0,WeatherDisplay:10.37,2013-01-04 03:50:00,
2013-01-03 18:00:00,65.1,62.7,29.95,ENE,67,8.0,15.0,92,0.00,SCT,SCT,0.08,0.0,WeatherDisplay:10.37,2013-01-04 04:00:00,
2013-01-03 18:10:00,64.7,62.6,29.95,ENE,62,8.0,18.0,93,0.00,BKN,SCT,0.08,0.0,WeatherDisplay:10.37,2013-01-04 04:10:00,
2013-01-03 18:20:00,64.5,62.4,29.96,ENE,78,8.0,16.0,93,0.01,RA,SCT,0.09,0.0,WeatherDisplay:10.37,2013-01-04 04:20:00,
2013-01-03 18:30:00,64.5,62.4,29.96,East,82,8.0,15.0,93,0.01,RA,SCT,0.10,0.0,WeatherDisplay:10.37,2013-01-04 04:30:00,
2013-01-03 18:40:00,64.5,62.4,29.96,ENE,69,6.0,14.0,93,0.01,RA,SCT,0.11,0.0,WeatherDisplay:10.37,2013-01-04 04:40:00,
2013-01-03 18:50:00,64.5,62.7,29.96,ENE,57,9.0,18.0,94,0.01,RA,SCT,0.12,0.0,WeatherDisplay:10.37,2013-01-04 04:50:00,
2013-01-03 19:00:00,64.5,62.4,29.96,ENE,65,7.0,16.0,93,0.01,RA,SCT,0.13,0.0,WeatherDisplay:10.37,2013-01-04 05:00:00,
2013-01-03 19:10:00,64.5,62.4,29.97,ENE,71,10.0,17.0,93,0.00,BKN,SCT,0.13,0.0,WeatherDisplay:10.37,2013-01-04 05:10:00,
2013-01-03 19:20:00,64.6,62.2,29.97,ENE,78,10.0,17.0,92,0.02,-RA,SCT,0.15,0.0,WeatherDisplay:10.37,2013-01-04 05:20:00,
2013-01-03 19:30:00,64.5,62.2,29.97,East,79,6.0,15.0,92,0.01,-RA,SCT,0.16,0.0,WeatherDisplay:10.37,2013-01-04 05:30:00,
2013-01-03 19:40:00,64.5,62.4,29.98,ENE,66,7.0,15.0,93,0.01,-RA,SCT,0.17,0.0,WeatherDisplay:10.37,2013-01-04 05:40:00,
2013-01-03 19:50:00,64.5,62.4,29.98,ENE,60,9.0,14.0,93,0.00,-RA,SCT,0.17,0.0,WeatherDisplay:10.37,2013-01-04 05:50:00,
2013-01-03 20:00:00,64.3,62.2,29.98,ENE,70,12.0,20.0,93,0.02,-RA,SCT,0.19,0.0,WeatherDisplay:10.37,2013-01-04 06:00:00,
2013-01-03 20:10:00,64.3,62.5,29.99,ENE,58,10.0,18.0,94,0.02,-RA,SCT,0.21,0.0,WeatherDisplay:10.37,2013-01-04 06:10:00,
2013-01-03 20:20:00,64.2,62.4,29.99,NE,48,10.0,20.0,94,0.02,-RA,SCT,0.23,0.0,WeatherDisplay:10.37,2013-01-04 06:20:00,
2013-01-03 20:30:00,63.8,62.1,30.00,ENE,67,12.0,25.0,94,0.04,-RA,SCT,0.27,0.0,WeatherDisplay:10.37,2013-01-04 06:30:00,
2013-01-03 20:40:00,63.6,61.8,30.00,ENE,66,14.0,25.0,94,0.03,-RA,SCT,0.30,0.0,WeatherDisplay:10.37,2013-01-04 06:40:00,
2013-01-03 20:50:00,63.7,62.2,30.00,NE,56,15.0,24.0,95,0.02,-RA,SCT,0.32,0.0,WeatherDisplay:10.37,2013-01-04 06:50:00,
2013-01-03 21:00:00,63.9,62.4,30.00,ENE,62,9.0,22.0,95,0.03,-RA,SCT,0.35,0.0,WeatherDisplay:10.37,2013-01-04 07:00:00,
2013-01-03 21:10:00,64.1,62.6,30.00,ENE,58,10.0,26.0,95,0.03, +RA,SCT,0.38,0.0,WeatherDisplay:10.37,2013-01-04 07:10:00,
2013-01-03 21:20:00,64.0,62.5,30.00,ENE,61,12.0,25.0,95,0.05, +RA,SCT,0.43,0.0,WeatherDisplay:10.37,2013-01-04 07:20:00,
2013-01-03 21:30:00,63.8,62.3,30.00,NE,51,9.0,26.0,95,0.07, +RA,SCT,0.50,0.0,WeatherDisplay:10.37,2013-01-04 07:30:00,
2013-01-03 21:40:00,63.9,62.4,30.00,ENE,61,10.0,26.0,95,0.04,RA,SCT,0.54,0.0,WeatherDisplay:10.37,2013-01-04 07:40:00,
2013-01-03 21:50:00,63.9,62.4,30.00,ENE,58,9.0,24.0,95,0.04,RA,SCT,0.58,0.0,WeatherDisplay:10.37,2013-01-04 07:50:00,
2013-01-03 22:00:00,63.9,62.4,30.00,ENE,74,13.0,27.0,95,0.02,RA,SCT,0.60,0.0,WeatherDisplay:10.37,2013-01-04 08:00:00,
2013-01-03 22:10:00,63.7,61.9,30.00,ENE,68,15.0,27.0,94,0.02,-RA,SCT,0.62,0.0,WeatherDisplay:10.37,2013-01-04 08:10:00,
2013-01-03 22:20:00,63.5,62.0,30.00,ENE,62,10.0,25.0,95,0.01,-RA,SCT,0.63,0.0,WeatherDisplay:10.37,2013-01-04 08:20:00,
2013-01-03 22:30:00,63.4,62.0,30.00,ENE,73,15.0,26.0,95,0.02,-RA,SCT,0.65,0.0,WeatherDisplay:10.37,2013-01-04 08:30:00,
2013-01-03 22:40:00,63.5,62.0,30.00,ENE,66,10.0,26.0,95,0.01,-RA,SCT,0.66,0.0,WeatherDisplay:10.37,2013-01-04 08:40:00,
2013-01-03 22:50:00,63.5,61.7,30.00,ENE,66,10.0,23.0,94,0.02,-RA,SCT,0.68,0.0,WeatherDisplay:10.37,2013-01-04 08:50:00,
2013-01-03 23:00:00,63.6,61.8,30.00,ENE,75,9.0,23.0,94,0.03,-RA,SCT,0.71,0.0,WeatherDisplay:10.37,2013-01-04 09:00:00,
2013-01-03 23:10:00,63.6,62.1,30.00,ENE,72,9.0,17.0,95,0.03,-RA,SCT,0.74,0.0,WeatherDisplay:10.37,2013-01-04 09:10:00,
2013-01-03 23:20:00,63.7,62.3,30.00,ENE,58,9.0,21.0,95,0.05,-RA,SCT,0.79,0.0,WeatherDisplay:10.37,2013-01-04 09:20:00,
2013-01-03 23:30:00,63.7,62.2,30.00,ENE,63,9.0,28.0,95,0.03,-RA,SCT,0.82,0.0,WeatherDisplay:10.37,2013-01-04 09:30:00,
2013-01-03 23:40:00,63.7,62.2,29.99,ENE,67,10.0,25.0,95,0.03,-RA,SCT,0.85,0.0,WeatherDisplay:10.37,2013-01-04 09:40:00,
2013-01-03 23:50:00,63.7,62.2,29.99,ENE,72,8.0,22.0,95,0.01,-RA,SCT,0.86,0.0,WeatherDisplay:10.37,2013-01-04 09:50:00,